User: anonymous   Login
Location: Darlington Observatory
(36.4817°N, 105.8156°W)
Time: 13:34:28
(UTC-06:00)
Language:

MOS 1 - Orbit

View from above orbital plane
View from above orbital plane
View from above satellite
View from above satellite

Ground track
Ground track

The orbit data is extracted from the following two-line orbital elements,

1 17527U 87018A   16144.92502692 -.00000067 +00000-0 -13614-4 0  9991
2 17527 099.2696 146.4503 0007438 284.4882 132.3299 14.02456071494686
Epoch (UTC): 23 May 2016 22:12:02
Eccentricity: 0.0007438
inclination: 99.2696°
perigee height: 880 km
apogee height: 891 km
right ascension of ascending node: 146.4503°
argument of perigee: 284.4882°
revolutions per day: 14.02456071
mean anomaly at epoch: 132.3299°
orbit number at epoch: 49468

The dashed part of the orbit path shows where the satellite is in the earth's shadow,  

DLR